Location: Staunton
(38.1490°N, 79.0720°W)
Time: 14:47:17
(UTC-04:00)

ISS - Pass Details

Date: 23 July 2017
Orbit: 400 x 408 km, 51.6° (Epoch: 21 July)

Event Time Altitude Azimuth Distance (km) Brightness Sun altitude
Rises 03:39:43 0° 319° (NW) 2,313 0.2 -23.6°
Reaches altitude 10° 03:42:17 10° 340° (NNW) 1,454 -0.6 -23.3°
Maximum altitude 03:44:34 18° 25° (NNE) 1,084 -0.8 -23.0°
Drops below altitude 10° 03:46:51 10° 69° (ENE) 1,452 -0.3 -22.7°
Sets 03:49:25 0° 90° (E) 2,311 0.5 -22.4°
